FENGYUN 1C DEB, 31740

Orbit data source: Space-Track

FENGYUN 1C DEB, 31740 is space debris in SSO originally from a launch on Mon, 10 May 1999 UTC launched from the Taiyaun Space Center, China (TSC). Fengyun 1C debris stems from the Chinese weather satellite Fengyun-1C, which was intentionally destroyed by a Chinese anti-satellite missile in 2007. This event dramatically increased the amount of space debris, with thousands of trackable fragments posing hazards to satellites and human spaceflight. The Fengyun 1C debris cloud has become a focal point in discussions about space sustainability and the need for international regulations to prevent the creation of new debris.

Loading next visibility...
Identifier
31740, 1999-025CEP
Orbit
SSO
Country
Flag of CNCN / PRC
Related business
Manufacturer
Unknown
Mission
Spacecraft
Bus & Motor
Unknown
Mass
Unknown
Launch date (UTC)
1999-05-10 (27 years ago)
Launch vehicle
Unknown
Launch site
Taiyaun Space Center, China (TSC)
Object type
Payload
Rocket body
Debris
Shape & HBR
Unknown shape, 0.1 m
Radar Cross Section
Small (<0.1 m²)

Expand to show TLE details & history
Last TLE update: 2 weeks ago

TLE from 2 weeks ago
0 FENGYUN 1C DEB
1 31740U 99025CEP 26109.29940650  .00002600  00000-0  78458-3 0  9996
2 31740  99.8265 304.9388 0024899  62.1312 117.2451 14.43345818669146
Epoch: 2026-04-19T07:11Z
TLE epoch observation values (Epoch: 2026-04-19T07:11:08.721Z)
Latitude
0.24981°
Longitude
169.78962°
Altitude
758.5 km
Speed
7.471 km/s
True Right ascension
08h 19m 55s
True Declination
0° 14' 54"
Sunlit
Object was in daylight at epoch
Visualization orbit readout
Latitude
Unknown
Longitude
Unknown
Altitude
Unknown
Speed
Unknown
Apparent Right ascension
Unknown
Apparent Declination
Unknown
Sunlit
N/A
Visualization observer readout
Local Sidereal Time
19:02:32
Azimuth
Unknown
Elevation
Unknown
Doppler factor
Unknown
Orbital elements
Apogee altitude
762.385 km
Perigee altitude
726.915 km
Semi-major axis
7,122.787 km
Eccentricity
0.00249
Inclination
99.8265°
RAAN
304.9388°
Arg. of periapsis
62.1312°
True anomaly
117.49841°
Mean anomaly
117.2451°
Eccentric anomaly
117.37179°
Mean motion
3.61051 °/min
Orbital period
99.71 mins
BSTAR
0.00078458
Loading maneuver chart data...
Computing Atmospheric mass density...

Documentation

Showing up to 5 results
|